sat.trackr.live / text

‹ back to catalog

STARLINK-32410

NORAD 61887 · 2024-204P

PAYLOAD ACTIVE UNKNOWN

§ Identity

Operator
Country
US
Launch date
2024-11-09
Launch site
AFWTR
Launch vehicle
Mass (kg)
RCS (m²)

Purposes: comms

External: N2YO · Heavens-Above · Gunter

§ Orbital elements

Epoch: 2026-05-25T03:01:44.809248Z

Period
93.85 min
Inclination
53.1596°
Eccentricity
0.0001074
Mean motion
15.34394846 rev/d
Perigee alt
462.0 km
Apogee alt
463.5 km
Semi-major
6,840.9 km
B*
2.9816e-5
RAAN
131.0999°
Arg perigee
91.7578°
Mean anomaly
268.3548°
Rev number
8,681

§ Raw data

STARLINK-324101 61887U 24204P   26145.12621307  .00000631  00000+0  29816-4 0  99912 61887  53.1596 131.0999 0001074  91.7578 268.3548 15.34394846 86818

JSON: /api/v1/satellites/61887 · /tle

For live sub-satellite position, see the globe view (requires WebGL).

§ Visibility from observer

Set your observer location to see the next 7 days of passes ≥ 10°. The values pass through the URL so the page stays shareable.

No JS? Fill the form by hand. The geolocation button needs JavaScript.